"Pseudo-MPEC" for CAQXFA2

Created 2024 Sep 5 17:22:08 UT using Find_Orb

Click here for an explanation of pseudo-MPECs

 
 Astrometry: 
     CAQXFA2*1C2024 09 04.26727022 44 58.312-10 36 21.28   ~9477 20.15GVNEOCPG96
     CAQXFA2 1C2024 09 04.27296922 45 12.614-10 35 50.03   ~9477 19.76GVNEOCPG96
     CAQXFA2 1C2024 09 04.27870022 45 27.068-10 35 18.64   ~9477 19.78GVNEOCPG96
     CAQXFA2  C2024 09 04.29342522 46 02.311-10 34 06.95   ~947q 19.6 GVNEOCPH01
     CAQXFA2  C2024 09 04.29698922 46 11.404-10 33 46.52   ~947q 19.6 GVNEOCPH01
     CAQXFA2  C2024 09 04.30859822 46 41.218-10 32 39.13   ~947q 19.4 GVNEOCPH01
     CAQXFA2  C2024 09 04.31393922 46 55.020-10 32 07.69   ~947q 19.5 GVNEOCPH01
     CAQXFA2 KC2024 09 04.34429422 48 16.564-10 28 53.33   ~948b 19.40GVNEOCPI52
     CAQXFA2 KC2024 09 04.34491922 48 18.184-10 28 50.48   ~948b 20.10GVNEOCPI52
     CAQXFA2 KC2024 09 04.34554822 48 19.850-10 28 46.49   ~948b 20.07GVNEOCPI52
     CAQXFA2 KC2024 09 04.34616622 48 21.528-10 28 41.74   ~948b 19.28GVNEOCPI52
     CAQXFA2  C2024 09 04.50884022 56 28.216-10 08 59.30   ~94K7 19.55GVNEOCPF52
     CAQXFA2 KC2024 09 04.88870423 21 06.73 -09 16 03.8    ~94Lq 19.2 GVNEOCPL01
     CAQXFA2 KC2024 09 04.88983923 21 11.57 -09 15 51.8    ~94Lq 19.1 GVNEOCPL01
     CAQXFA2 KC2024 09 04.89097323 21 16.42 -09 15 39.4    ~94Lq 18.7 GVNEOCPL01
     CAQXFA2 KC2024 09 04.89210823 21 21.27 -09 15 26.7    ~94Lq 18.6 GVNEOCPL01
     CAQXFA2 KC2024 09 05.46892200 15 55.076-06 39 30.85   ~95Bb       VNEOCPI52
     CAQXFA2 KC2024 09 05.46930000 15 57.737-06 39 22.72   ~95Bb 18.36GVNEOCPI52
     CAQXFA2 KC2024 09 05.46967500 16 00.379-06 39 14.54   ~95Bb 18.39GVNEOCPI52
     CAQXFA2 KC2024 09 05.47004500 16 03.018-06 39 07.67   ~95Bb 18.68GVNEOCPI52
     CAQXFA2 KB2024 09 05.60908400 35 10.517-05 43 43.20   ~95Fb 18.9 VZNEOCPQ06
     CAQXFA2 KB2024 09 05.61676700 36 12.156-05 40 21.97   ~95Fb 19.1 VZNEOCPQ06

Station data:
(F52) Pan-STARRS 2, Haleakala  (N20.707382 W156.255910)  US/Hawaii.
   Observers J. Bulger, T. Dukes, T. Lowe, A. Schultz, M. Willman. Measurers
   K. Chambers, S. Chastel, T. de Boer, L. Denneau, J. Fairlamb, H.
   Flewelling, M. Huber, C.-C. Lin, E. Magnier, Y. Ramanjooloo, R. Wainscoat,
   R. Weryk. 1.8-m Ritchey-Chrétien + CCD.
(G96) Mt. Lemmon Survey  (N32.442729 W110.788720)  US/Arizona.  Observer E.
   J. Christensen. 1.5-m reflector + 10K CCD.
(H01) Magdalena Ridge Observatory, Socorro  (N33.984833 W107.189333)  US/New
   Mexico.  Observers W. H. Ryan, E. V. Ryan. Measurer W. H. Ryan. 2.4-m
   f/8.9 reflector + CCD.
(I52) Steward Observatory, Mt. Lemmon Station  (N32.442570 W110.788920)
   US/Arizona.  Observers T. A. Pruyne, B. M. Africano, E. J. Christensen, G.
   A. Farneth, D. C. Fuls, A. R. Gibbs, A. D. Grauer, H. Gröller, J. A.
   Johnson, R. A. Kowalski, S. M. Larson, G. J. Leonard, D. Rankin, R. L.
   Seaman, F. C. Shelly, K. W. Wierzchoś. 1.0-m prime focus + CCD.
(L01) Višnjan Observatory, Tičan  (N45.290897 E13.749300)  Croatia.
   Observers K. Korlević, D. Pujagic, V. Dobos. Measurers D. Pujagic, K.
   Korlević. 1.0-m f/2.9 reflector + CCD.
(Q06) Tarui Observatory, Tarui  (N35.394791 E136.495470)  Japan.

Orbital elements:  CAQXFA2
   Perihelion 2024 Oct 7.98898 +/- 0.00533 TT = 23:44:07 (JD 2460591.48898)
Epoch 2024 Sep  5.0 TT = JDT 2460558.5   Earth MOID: 0.0020   Ma: 0.0646
M 349.96241248 +/- 0.015            (J2000 ecliptic)             AutoNEOCP
n   0.30427096 +/- 0.00043          Peri.  225.54901 +/- 0.0013
a   2.18925177 +/- 0.00206          Node   160.40116 +/- 0.00021
e   0.5809070 +/- 0.000413          Incl.    1.37076 +/- 0.0007
P   3.23924                H 28.47  G  0.15   U  7.5
q 0.91750004 +/- 4.01e-5    Q 3.46100349 +/- 0.00416
From 22 observations 2024 Sept. 4-5 (32.4 hr); mean residual 0".40
Residuals in arcseconds: 
240904 G96  .75-  .04-    240904 I52  .27-  .51-    240905 I52  .16+  .97+    
240904 G96  .57-  .03-    240904 I52  .32-  .41-    240905 I52  .12-  .54+    
240904 G96  .11-  .35-    240904 I52  .21+  .52+    240905 I52  .39-  .23+    
240904 H01  .42+  .03+    240904 F52  .38+  .11+    240905 I52  .18-  1.3-    
240904 H01  .32+  .01+    240904 L01  .48-  .24-    240905 Q06  .47+  .20-    
240904 H01  .33+  .03-    240904 L01  .32-  .39-    240905 Q06  .09-  .03+    
240904 H01  .24+  .03-    240904 L01  .00   .15-    
240904 I52  .30+  .50+    240904 L01  .19+  .37+    

Ephemerides (geocentric):
Date (UTC) HH   RA             Dec           delta  r     elong  mag " sig PA
---- --------  ------------   ------------  ------ ------ -----  --- --------
2024 09 05 17  00 48 59.511   -04 46 26.84  .00820 1.0154 152.4 19.3 .454   7
2024 09 05 18  00 55 19.156   -04 25 31.87  .00807 1.0152 150.9 19.3 .469   9
2024 09 05 19  01 01 50.938   -04 03 42.84  .00794 1.0149 149.2 19.3 .485  11
2024 09 05 20  01 08 34.785   -03 40 59.85  .00782 1.0147 147.6 19.3 .502  13
2024 09 05 21  01 15 30.537   -03 17 23.53  .00771 1.0145 145.8 19.4 .521  15
2024 09 05 22  01 22 37.936   -02 52 55.09  .00760 1.0142 144.1 19.4 .542  17
2024 09 05 23  01 29 56.623   -02 27 36.36  .00750 1.0140 142.2 19.4 .566  20
2024 09 06 00  01 37 26.124   -02 01 29.84  .00741 1.0138 140.4 19.4 .592  22
2024 09 06 01  01 45 05.854   -01 34 38.73  .00733 1.0135 138.4 19.4 .620  25
2024 09 06 02  01 52 55.108   -01 07 06.99  .00726 1.0133 136.5 19.5 .651  27
2024 09 06 03  02 00 53.063   -00 38 59.25  .00719 1.0131 134.5 19.5 .685  30
2024 09 06 04  02 08 58.782   -00 10 20.87  .00714 1.0128 132.5 19.6 .722  32
2024 09 06 05  02 17 11.221   +00 18 42.17  .00710 1.0126 130.4 19.6 .762  35
2024 09 06 06  02 25 29.239   +00 48 03.34  .00706 1.0124 128.3 19.6 .804  37
2024 09 06 07  02 33 51.609   +01 17 35.66  .00704 1.0121 126.2 19.7 .850  39
2024 09 06 08  02 42 17.039   +01 47 11.83  .00702 1.0119 124.1 19.8 .897  41
2024 09 06 09  02 50 44.186   +02 16 44.37  .00702 1.0117 122.0 19.8 .946  43
2024 09 06 10  02 59 11.681   +02 46 05.79  .00702 1.0114 119.8 19.9 1.00  45
2024 09 06 11  03 07 38.149   +03 15 08.71  .00704 1.0112 117.7 19.9 1.05  47
2024 09 06 12  03 16 02.231   +03 43 46.06  .00706 1.0110 115.6 20.0 1.10  49
2024 09 06 13  03 24 22.607   +04 11 51.20  .00710 1.0108 113.5 20.1 1.16  51
2024 09 06 14  03 32 38.016   +04 39 18.04  .00714 1.0105 111.5 20.2 1.21  52
2024 09 06 15  03 40 47.271   +05 06 01.12  .00719 1.0103 109.4 20.2 1.27  54
2024 09 06 16  03 48 49.278   +05 31 55.73  .00726 1.0101 107.4 20.3 1.32  55
2024 09 06 17  03 56 43.046   +05 56 57.93  .00733 1.0098 105.5 20.4 1.37  56
2024 09 06 18  04 04 27.693   +06 21 04.55  .00741 1.0096 103.5 20.5 1.42  57
2024 09 06 19  04 12 02.457   +06 44 13.21  .00750 1.0094 101.7 20.6 1.47  59
2024 09 06 20  04 19 26.691   +07 06 22.28  .00760 1.0091  99.8 20.7 1.52  60
2024 09 06 21  04 26 39.865   +07 27 30.83  .00770 1.0089  98.0 20.8 1.57  61
2024 09 06 22  04 33 41.566   +07 47 38.57  .00782 1.0087  96.3 20.9 1.61  62
2024 09 06 23  04 40 31.484   +08 06 45.81  .00794 1.0085  94.6 21.0 1.65  63
2024 09 07 00  04 47 09.412   +08 24 53.32  .00806 1.0082  93.0 21.1 1.69  63
2024 09 07 01  04 53 35.234   +08 42 02.31  .00820 1.0080  91.4 21.2 1.73  64
2024 09 07 02  04 59 48.917   +08 58 14.34  .00834 1.0078  89.9 21.3 1.77  65
2024 09 07 03  05 05 50.501   +09 13 31.24  .00848 1.0076  88.5 21.4 1.80  66
2024 09 07 04  05 11 40.092   +09 27 55.07  .00864 1.0073  87.0 21.5 1.83  67
2024 09 07 05  05 17 17.849   +09 41 28.01  .00879 1.0071  85.7 21.6 1.86  67
2024 09 07 06  05 22 43.977   +09 54 12.38  .00896 1.0069  84.4 21.6 1.89  68
2024 09 07 07  05 27 58.721   +10 06 10.53  .00912 1.0066  83.1 21.7 1.92  68
2024 09 07 08  05 33 02.355   +10 17 24.84  .00929 1.0064  81.9 21.8 1.94  69
2024 09 07 09  05 37 55.179   +10 27 57.67  .00947 1.0062  80.7 21.9 1.96  70
2024 09 07 10  05 42 37.510   +10 37 51.35  .00965 1.0060  79.6 22.0 1.99  70
2024 09 07 11  05 47 09.678   +10 47 08.16  .00983 1.0057  78.5 22.1 2.01  71
2024 09 07 12  05 51 32.021   +10 55 50.30  .01002 1.0055  77.5 22.2 2.02  71
2024 09 07 13  05 55 44.882   +11 03 59.87  .01021 1.0053  76.5 22.3 2.04  72
2024 09 07 14  05 59 48.606   +11 11 38.91  .01041 1.0051  75.5 22.4 2.06  72
2024 09 07 15  06 03 43.536   +11 18 49.34  .01060 1.0048  74.6 22.5 2.07  73
2024 09 07 16  06 07 30.010   +11 25 32.99  .01080 1.0046  73.7 22.6 2.09  73